Regional Weather Roundup
Issued by NWS Charleston, SC

Current Version | Previous Version | Text Only | Print | Product List | Glossary Off
Versions: 1 2 3 4 5 6 7 8 9 10 11 12 13 14 15 16 17 18 19 20 21 22 23 24 25 26 27 28 29 30 31 32 33 34 35 36 37 38 39 40 41 42 43 44 45 46 47 48 49 50
000 ASUS42 KCHS 280610 RWRCHS REGIONAL WEATHER ROUNDUP NATIONAL WEATHER SERVICE CHARLESTON SC 100 AM EST WED JAN 28 2015 NOTE: "FAIR" INDICATES FEW OR NO CLOUDS BELOW 12,000 FEET WITH NO SIGNIFICANT WEATHER AND/OR OBSTRUCTIONS TO VISIBILITY. NOT ALL STATIONS ARE QUALITY CONTROLLED BY THE NATIONAL WEATHER SERVICE. USE DATA WITH CAUTION...ESPECIALLY DEWPOINT OBSERVATIONS. SCZ027-030-031-034>040-042>050-280700- ...SOUTHEAST SOUTH CAROLINA... CITY SKY/WX TMP DP RH WIND PRES REMARKS N CHARLESTON CLEAR 36 28 73 N9 30.03R WCI 29 6HR MIN TEMP: 34; 6HR MAX TEMP: 44; WATERFRONT PRK N/A 41 N/A N/A NW8 N/A MOUNT PLEASANT FAIR N/A N/A N/A NW5 30.03R PINOPOLIS NOT AVBL MONCKS CORNER FAIR 43 27 52 N5 30.04R SUMMERVILLE NOT AVBL BEAUFORT MCAS CLEAR 41 31 67 NW9 30.04R 6HR MIN TEMP: 35; 6HR MAX TEMP: 44; BEAUFORT ARPT FAIR 41 34 75 NW9 30.04R HILTON HEAD IS CLEAR 43 32 65 NW5 30.05R WALTERBORO CLEAR 36 28 75 N3 30.05R ALLENDALE FAIR 37 27 65 CALM 30.05S ...SOUTHERN MIDLANDS AND PEE DEE... CITY SKY/WX TMP DP RH WIND PRES REMARKS GEORGETOWN NOT AVBL KINGSTREE NOT AVBL ORANGEBURG CLEAR 36 24 62 NW3 30.05S 6HR MIN TEMP: 34; 6HR MAX TEMP: 42; BARNWELL FAIR 36 28 75 NW3 30.06S AIKEN FAIR 34 27 75 NW5 30.08S WCI 30 MANNING FAIR 32 28 86 CALM 30.04S COLUMBIA CLEAR 37 25 61 NW8 30.05R WCI 31 6HR MIN TEMP: 37; 6HR MAX TEMP: 46; SUMTER CLEAR 34 23 65 NW7 30.02R WCI 27 6HR MIN TEMP: 33; 6HR MAX TEMP: 42; FLORENCE CLEAR 36 21 54 N10 30.03R WCI 28 6HR MIN TEMP: 33; 6HR MAX TEMP: 41; MYRTLE BEACH PTCLDY 37 21 52 NW8 30.03R WCI 31 N MYRTLE BEACH CLOUDY 36 23 59 NW5 30.00R WCI 32 6HR MIN TEMP: 32; 6HR MAX TEMP: 38; $$ GAZ063-065-086>088-099>101-113>116-118-119-134>141-150-280700- ...SOUTHEAST GEORGIA... CITY SKY/WX TMP DP RH WIND PRES REMARKS SAVANNAH ARPT CLEAR 39 29 67 NW7 30.06R WCI 34 6HR MIN TEMP: 38; 6HR MAX TEMP: 45; HUNTER AAF CLEAR 37 30 76 W7 30.04R WCI 31 6HR MIN TEMP: 36; 6HR MAX TEMP: 44; FORT STEWART NOT AVBL STATESBORO CLEAR 37 32 83 NW6 30.07R WCI 32 SYLVANIA CLEAR 38 31 78 NW5 30.07S WCI 34 CLAXTON FAIR 37 32 81 NW6 30.08S WCI 33 ...CSRA...CENTRAL AND FAR SOUTHEAST GEORGIA... CITY SKY/WX TMP DP RH WIND PRES REMARKS THOMSON CLEAR 34 31 90 CALM 30.11S AUGUSTA-BUSH CLEAR 32 26 78 NW6 30.07R WCI 26 6HR MIN TEMP: 31; 6HR MAX TEMP: 46; AUGUSTA-DANIEL CLEAR 38 28 67 CALM 30.07R SWAINSBORO FAIR 36 27 69 NW5 30.09R WCI 32 VIDALIA CLEAR 39 32 75 NW7 30.08S WCI 34 EASTMAN FAIR 39 32 77 NW5 30.12F WCI 35 HAZLEHURST FAIR 42 33 71 NW6 30.09S ALMA CLEAR 41 30 65 NW9 30.09S 6HR MIN TEMP: 35; 6HR MAX TEMP: 48; WAYCROSS CLEAR 44 35 69 N10 30.09S JESUP FAIR 39 34 81 CALM 30.08S BAXLEY FAIR 43 32 65 NW8 30.09R BRUNSWICK CLEAR 41 32 70 W3 30.08S SAINT SIMONS CLEAR 43 30 60 NW8 30.07R 6HR MIN TEMP: 41; 6HR MAX TEMP: 49; $$ SCZ027-028-034-036>038-045-046-048>050-GAZ119-141-280700- ...LAKE AND SUPPLEMENTAL COASTAL OBSERVATIONS... STATION/POSITION TIME TEMP WIND PRES WAVE SWELL AIR SEA DIR/SP/G HT/PER HT/PER/DIR (UTC) (F) (DEG/KT/KT) (MB) (FT/S) (FT/S/D) UPR LAKE MARION NOT AVBL WINYAH BAY NOT AVBL LAKE MURRAY 0500 36 330/ 3/ 7 1016.9R ACE BASIN NERRS NOT AVBL FORT PULASKI 0500 44 52 300/ 11/ 15 1017.6R SAPELO ISLAND 0500 44 290/ 7 1018.0R $$ ANZ835-935-AMZ111-154-330-350-352-354-370-450-454-472-280700- ...C-MAN AND BUOY OBSERVATIONS... STATION/POSITION TIME TEMP WIND PRES WAVE SWELL AIR SEA DIR/SP/G HT/PER HT/PER/DIR (UTC) (F) (DEG/KT/KT) (MB) (FT/S) (FT/S/D) BUOY 41004 0550 51 67 320/ 16/ 21 1015.0F 3/ 4 2/ 9 BUOY 41008 0550 49 54 330/ 19/ 23 1016.9R 3/ 4 FOLLY BEACH CMAN 0500 40 290/ 5/ 6 1016.8R CAPERS NEARSHORE 0500 46 300/ 10/ 10 N/A FRIPP NEARSHORE 0500 46 320/ 16/ 19 N/A STATION/POSITION TIME TEMP WIND PRES WAVE SWELL AIR SEA DIR/SP/G HT/PER HT/PER/DIR (UTC) (F) (DEG/KT/KT) (MB) (FT/S) (FT/S/D) 5E ST. MARYS GA 0522 58 N/A 3/ 4 FRYING PAN BUOY 0550 48 65 320/ 17/ 23 1014.9R 5/ 5 2/ 70/10 BUOY 41025 0550 40 58 340/ 19/ 23 1012.4R 8/14 7/ 50/14 CAPE LOOKOUT NC 0500 38 330/ 10/ 12 1013.9R BUOY 41002 0550 55 71 310/ 19/ 29 1011.3R 13/ 9 8/350/14 BUOY 41010 0520 64 75 320/ 25/ 31 1013.7R ST AUGUSTINE FL 0600 48 320/ 8/ 11 1018.8R $$

USA.gov is the U.S. government's official web portal to all federal, state and local government web resources and services.